カタログに戻る

FENGYUN 1C DEB

運用中PO
NORAD 30007·DEBRIS·🇨🇳 China

打ち上げ May 10, 1999 から Taiyuan Satellite Launch Center

Loading…

次のパス (今後24時間)

TLE

最新Source: Space-Track

元期: Sep 14, 2026, 05:23 UTC

1 30007U 99025MG  26257.22473189  .00002318  00000-0  94831-3 0  9995
2 30007  99.1681 176.6531 0062384 305.8487 212.4208 14.27232593 12834

AllMySatでFENGYUN 1C DEBをリアルタイム追跡

Download on the App Store